Погода в Новороманове

Россия / Алтайский край     53°05′22″N   83°22′07″E
темп.,
°C
ветер,
м/с
пор.,
м/с
влажн.,
%
обл.,
%
осадки,
мм/ч
давл.,
гПа
погр.,
м
23 октября, сб
сб2301:00+3ююз6146321 0.0 1027594
04:00+3ююз8165719 0.0 1027782
07:00+2ююз917595 0.0 1028789
10:00+3ююз10175586 0.0 10271245
13:00+6ююз111947100 0.0 10251353
16:00+7ююз122144100 0.0 10231332
19:00+7юз132352100 0.0 10221365
22:00+6юз122071100 0.1 10231208
24 октября, вс
вс2401:00+7юз12206494 0.1 10231169
04:00+7юз121961100 0.0 10231062
07:00+7юз121956100 0.0 1023950
10:00+6юз111958100 0.0 1023880
13:00+7юз111756100 0.0 1023888
16:00+9юз10155480 0.0 1024990
19:00+8юз7156397 0.0 1025592
22:00+9юз71465100 0.0 1025450
25 октября, пн
пн2501:00+9юз7145692 0.0 1025467
04:00+8юз61355100 0.0 1023400
07:00+6ююз51457100 0.0 1023350
10:00+7юз71555100 0.0 1022453
13:00+11юз8134678 0.0 1021676
16:00+12юз7124520 0.0 1019794
19:00+9юз5135315 0.0 1020349
22:00+7юз4106439 0.0 1021182
26 октября, вт
вт2601:00+6юз346831 0.0 102161
04:00+5ююз346629 0.0 102154
07:00+4ю3464100 0.0 102053
10:00+6ю3760100 0.0 1018183
13:00+11ююв4652100 0.0 1014304
16:00+12ю51446100 0.0 10121021
19:00+11юз7183799 0.0 1011584
22:00+10юз7184162 0.0 1011482
27 октября, ср
ср2701:00+9юз7174686 0.0 1013450
04:00+7зюз5125499 0.0 1015330
07:00+5сз4883100 0.0 1019302
10:00+4ссз5587100 0.0 1023648
13:00+2с3498100 0.9 1025159
16:00+3с236993 0.1 1026555
19:00+3св2356100 0.1 102761
22:00+2св3654100 0.0 1028282